This demonstration page uses our WeatherBlox Daily Observations layout. Learn more.

Left ArrowRight Arrow

40.92501, -98.34201

Hourly Observations for May 31, 2020

Temp ( °F °C ) Dew Point ( °F °C ) Humidity (%) Winds ( mph kmh ) Pressure ( in mb ) Visibility ( mi km ) Precip ( " mm )
12:53 am 00:53 Mostly Clear 60 15.6 51 10.6 72 72 ESE 9 15 30.20 1023 10 16 0.00 0.00
1:53 am 01:53 Clear 59 15 52 11.1 78 78 ESE 9 15 30.20 1023 10 16 0.00 0.00
2:53 am 02:53 Mostly Clear 59 15 52 11.1 78 78 SE 10 17 30.17 1022 10 16 0.00 0.00
3:53 am 03:53 Partly Cloudy 59 15 52 11.1 78 78 ESE 8 13 30.17 1022 10 16 0.00 0.00
4:53 am 04:53 Mostly Clear 59 15 52 11.1 78 78 E 12 19 30.16 1021 10 16 0.00 0.00
5:53 am 05:53 Clear 60 15.6 52 11.1 75 75 SE 17 28 30.14 1021 10 16 0.00 0.00
6:53 am 06:53 Mostly Sunny 61 16.1 52 11.1 72 72 SE 17 28 30.14 1021 10 16 0.00 0.00
7:53 am 07:53 Sunny 64 17.8 53 11.7 68 68 SSE 23 37 30.14 1021 10 16 0.00 0.00
8:53 am 08:53 Sunny 68 20 54 12.2 61 61 SSE 23 37 30.13 1020 10 16 0.00 0.00
9:53 am 09:53 Sunny 72 22.2 54 12.2 53 53 S 22 35 30.12 1020 10 16 0.00 0.00
10:53 am 10:53 Sunny 76 24.4 55 12.8 48 48 SSE 22 35 30.10 1019 10 16 0.00 0.00
11:53 am 11:53 Sunny 79 26.1 56 13.3 45 45 S 24 39 30.08 1019 10 16 0.00 0.00
12:53 pm 12:53 Sunny 81 27.2 56 13.3 42 42 S 21 33 30.07 1018 10 16 0.00 0.00
1:53 pm 13:53 Sunny 83 28.3 57 13.9 41 41 S 23 37 30.04 1017 10 16 0.00 0.00
2:53 pm 14:53 Sunny 80 26.7 57 13.9 45 45 S 22 35 30.04 1017 10 16 0.00 0.00
3:53 pm 15:53 Sunny with Light Rain 82 27.8 59 15 46 46 S 22 35 30.02 1017 10 16 0.00 0.00
4:53 pm 16:53 Sunny 79 26.1 58 14.4 49 49 S 22 35 30.01 1016 10 16 0.00 0.00
5:53 pm 17:53 Sunny 81 27.2 59 15 47 47 SSE 20 31 29.98 1015 10 16 0.00 0.00
6:53 pm 18:53 Sunny 82 27.8 57 13.9 42 42 SSE 22 35 29.95 1014 10 16 0.00 0.00
7:53 pm 19:53 Sunny 81 27.2 57 13.9 44 44 S 23 37 29.95 1014 10 16 0.00 0.00
8:53 pm 20:53 Sunny 79 26.1 57 13.9 47 47 S 18 30 29.95 1014 10 16 0.00 0.00
9:53 pm 21:53 Clear 78 25.6 57 13.9 48 48 S 21 33 29.96 1014 10 16 0.00 0.00
10:53 pm 22:53 Mostly Cloudy with Light Rain 74 23.3 59 15 60 60 SSE 18 30 29.97 1015 10 16 0.00 0.00
11:53 pm 23:53 Clear 73 22.8 59 15 62 62 SSE 20 31 29.96 1015 10 16 0.00 0.00

Powered by AerisWeather